Weather in Borilovo

Russia / Oryol Oblast     53°21′56″N   35°58′18″E
temp.,
°C
wind,
m/s
gust,
m/s
humid.,
%
clouds,
%
prec.,
mm/h
press.,
hPa
HPBL,
m
13 april, tue
tue1300:00+11se515735 0.0 1023277
03:00+9se4884100 0.0 1023115
06:00+8se3587100 0.0 102471
09:00+13se596521 0.0 1023355
12:00+18sse694899 0.0 10221037
15:00+19se6939100 0.0 10221732
18:00+17se24485 0.0 1020102
21:00+14se235429 0.0 102026
14 april, wed
wed1400:00+11sse3474100 0.0 102050
03:00+10se498267 0.0 1020168
06:00+8se349093 0.0 101963
09:00+13se357271 0.0 1019337
12:00+17se573834 0.0 10171058
15:00+18se5738100 0.0 10161574
18:00+16s365283 0.0 1015214
21:00+11s3784100 0.1 1017208
15 april, thu
thu1500:00+10ese338488 0.0 101648
03:00+9ese338887 0.0 101641
06:00+9se2288100 0.0 101628
09:00+12ese2274100 0.0 1015271
12:00+15ene2357100 0.0 1014750
15:00+14ssw1267100 1.2 1014406
18:00+11sw348399 0.8 1014115
21:00+9ssw22895 0.8 101427
16 april, fri
fri1600:00+8nne118967 0.0 101410
03:00+9ese228989 0.1 101424
06:00+9nne348899 0.8 101461
09:00+12ene577796 0.8 1015487
12:00+10e4688100 1.5 1016310
15:00+13e367280 2.2 1016465
18:00+13se357385 1.3 1016190
21:00+10ene3490100 2.8 101859
17 april, sat
sat1700:00+10ne51296100 1.3 1018531
03:00+10ene7128899 2.2 1019561
06:00+8ne71390100 0.6 1020645
09:00+9ene81282100 0.8 1021746
12:00+11ene91271100 0.1 10221109
15:00+13ene9115962 0.1 10221500
18:00+11ene813515 0.0 10241146
21:00+8ene715550 0.0 1026531